Flag for Jamaica Weather past 2 weeks in Montego Bay, Jamaica

Now
86 °F

Partly sunny.


Feels Like: 102 °F
Forecast: 77 / 88 °F
Wind: 9 mph from East

Location: Montego Bay / Sangster

Current Time: Sep 30, 2014 at 1:23:54 PM

Latest Report: Sep 30, 2014 at 1:00 PM


Visibility: N/A

Pressure: 29.89 "Hg

Humidity: 84%

Dew point: 81 °F

Location of Montego BayLocation

Historic Weather in Montego Bay — Graph

°F

Montego Bay temperature yesterday

Maximum temperature yesterday: 86 °F (at 9:00 AM)
Minimum temperature yesterday: 73 °F (at 2:00 PM)
Average temperature yesterday: 80 °F

Past Weeks' High & Low Weather Summary

 TemperatureHumidityPressure
High88 °F (Sep 15, 12:00 PM)100% (Sep 26, 5:00 PM)30.01 "Hg (Sep 26, 5:00 PM)
Low73 °F (Sep 29, 2:00 PM)66% (Sep 17, 10:00 PM)29.80 "Hg (Sep 27, 3:00 AM)
Average82 °F84%29.90 "Hg
* Reported Sep 15 12:00 Noon — Sep 30 12:00 Noon, Montego Bay, Weather by CustomWeather, © 2014

Note: Actual official high and low records may vary slightly from our data, if they occured in-between our weather recording intervals... More about our weather records

Advertising

Montego Bay weather history for previous 24 hours

 ConditionsComfort  
Time TempWeatherWind HumidityBarometerVisibility
12:00 PM
Sep 30
88 °FPartly sunny.10 mph75%29.89 "HgN/A
11:00 AM86 °FPartly sunny.8 mph79%29.89 "HgN/A
10:00 AM88 °FPassing clouds.6 mph79%29.92 "HgN/A
9:00 AM86 °FPassing clouds.6 mph79%29.92 "HgN/A
8:00 AM84 °FPassing clouds.3 mph84%29.89 "HgN/A
7:00 AM81 °FPassing clouds.2 mph89%29.89 "HgN/A
6:00 AM77 °FPassing clouds.2 mph94%29.89 "HgN/A
5:00 AM77 °FPassing clouds.2 mph94%29.89 "HgN/A
4:00 AM75 °FPassing clouds.2 mph100%29.86 "HgN/A
2:00 AM77 °FPassing clouds.1 mph94%29.86 "HgN/A
1:00 AM77 °FThundershowers. Passing clouds.3 mph94%29.86 "HgN/A
12:00 AM77 °FThundershowers. Passing clouds.2 mph94%29.89 "HgN/A
11:00 PM
Sep 29
77 °FPassing clouds.3 mph94%29.89 "HgN/A
10:00 PM77 °FPassing clouds.1 mph100%29.89 "HgN/A
9:00 PM79 °FThundershowers. Passing clouds.1 mph100%29.89 "HgN/A
8:00 PM79 °FThundershowers. Passing clouds.1 mph100%29.86 "HgN/A
7:00 PM81 °FThundershowers. Passing clouds.2 mph94%29.83 "HgN/A
6:00 PM81 °FPassing clouds.3 mph94%29.83 "HgN/A
5:00 PM82 °FPassing clouds.3 mph94%29.83 "HgN/A
4:00 PM81 °FPartly sunny.1 mph94%29.83 "HgN/A
3:00 PM79 °FThunderstorms. Cloudy.1 mph89%29.83 "HgN/A
2:00 PM73 °FThunderstorms. Partly sunny.5 mph100%29.86 "HgN/A
1:00 PM84 °FSprinkles. Scattered clouds.12 mph89%29.86 "HgN/A
Weather by CustomWeather, © 2014

See weather overviewHow to use our weather pages